Weather History for Houghton, MI

Change the Weather History Date:

Monday, June 17, 2013

  Actual Average Record
Temperature  
Mean Temperature 50 °F -  
Max Temperature 57 °F 70 °F 87 °F (1957)
Min Temperature 41 °F 49 °F 34 °F (1972)
Degree Days  
Heating Degree Days 15    
Moisture  
Dew Point 44 °F    
Average Humidity 83    
Maximum Humidity 97    
Minimum Humidity 53    
Precipitation  
Precipitation 0.00 in - - ()
Sea Level Pressure  
Sea Level Pressure 29.98 in    
Wind  
Wind Speed 6 mph (East)    
Max Wind Speed 10 mph    
Max Gust Speed -    
Visibility 10 miles    
Events      
Averages and records for this station are not official NWS values.
T = Trace of Precipitation, MM = Missing Value Source: NWS Daily Summary

Daily Weather History Graph

Daily Weather History Graph

Search for Another Location

Airport:

Trip Planner

Search our weather history database for the weather conditions in past years. The results will help you decide how hot, cold, wet, or windy it might be!

Date:

Astronomy

Jun. 17, 2013 Rise Set
Actual Time 5:57 AM EDT 9:52 PM EDT
Civil Twilight 5:17 AM EDT 10:32 PM EDT
Nautical Twilight 4:22 AM EDT 11:27 PM EDT
Astronomical Twilight 2:58 AM EDT 12:51 AM EDT
Moon 3:10 PM EDT (6/17) 1:55 AM EDT (6/17)
Length of Visible Light 17h 15m
Length of Day
15h 54m
First Quarter, 60% of the Moon is Illuminated
Jun 17
First Quarter
Jun 23
Full
Jun 30
Last Quarter
Jul 8
New
Jul 15
First Quarter

Hourly Weather History & Observations

Time (EDT) Temp. Windchill Dew Point Humidity Pressure Visibility Wind Dir Wind Speed Gust Speed Precip Events Conditions
12:33 AM 51.8 °F - 50.0 °F 94% 29.86 in 10.0 mi NE 6.9 mph - N/A   Mostly Cloudy
12:35 AM 51.8 °F - 50.0 °F 94% 29.86 in 10.0 mi NE 4.6 mph - N/A   Mostly Cloudy
12:53 AM 52.0 °F - 51.1 °F 97% 29.87 in 9.0 mi ENE 10.4 mph - N/A   Overcast
1:40 AM 51.8 °F - 48.2 °F 88% 29.90 in 10.0 mi East 3.5 mph - N/A   Overcast
1:53 AM 51.1 °F - 48.0 °F 89% 29.91 in 10.0 mi East 4.6 mph - N/A   Overcast
2:53 AM 48.9 °F - 46.9 °F 93% 29.90 in 10.0 mi East 5.8 mph - N/A   Overcast
3:27 AM 48.2 °F - 44.6 °F 87% 29.89 in 10.0 mi East 3.5 mph - N/A   Scattered Clouds
3:53 AM 46.9 °F - 45.0 °F 93% 29.91 in 10.0 mi Calm Calm - N/A   Clear
4:19 AM 46.4 °F 45.2 °F 44.6 °F 93% 29.92 in 10.0 mi East 3.5 mph - N/A   Mostly Cloudy
4:50 AM 46.4 °F - 44.6 °F 93% 29.92 in 10.0 mi Calm Calm - N/A   Overcast
4:53 AM 46.9 °F - 45.0 °F 93% 29.93 in 10.0 mi Calm Calm - N/A   Overcast
5:53 AM 46.9 °F - 44.1 °F 90% 29.95 in 10.0 mi East 5.8 mph - N/A   Overcast
6:53 AM 46.0 °F 42.5 °F 43.0 °F 89% 29.97 in 10.0 mi East 6.9 mph - N/A   Overcast
7:53 AM 46.9 °F - 43.0 °F 86% 29.97 in 10.0 mi East 10.4 mph - N/A   Overcast
8:14 AM 46.4 °F 41.5 °F 42.8 °F 87% 29.96 in 10.0 mi East 10.4 mph - N/A   Overcast
8:53 AM 46.9 °F - 43.0 °F 86% 29.99 in 10.0 mi ESE 8.1 mph - N/A   Overcast
9:00 AM 46.4 °F 42.4 °F 42.8 °F 87% 29.97 in 10.0 mi East 8.1 mph - N/A   Overcast
9:53 AM 46.9 °F - 44.1 °F 90% 29.99 in 10.0 mi East 8.1 mph - N/A   Overcast
10:24 AM 46.4 °F 41.9 °F 44.6 °F 93% 29.98 in 10.0 mi East 9.2 mph - N/A   Overcast
10:53 AM 46.9 °F - 45.0 °F 93% 30.01 in 10.0 mi East 6.9 mph - N/A   Overcast
11:32 AM 48.2 °F - 44.6 °F 87% 30.00 in 10.0 mi East 8.1 mph - N/A   Overcast
11:53 AM 48.9 °F - 44.1 °F 83% 30.03 in 10.0 mi ESE 8.1 mph - N/A   Overcast
12:21 PM 50.0 °F - 44.6 °F 82% 30.01 in 10.0 mi East 9.2 mph - N/A   Overcast
12:53 PM 50.0 °F - 44.1 °F 80% 30.03 in 10.0 mi East 8.1 mph - N/A   Overcast
1:33 PM 51.8 °F - 44.6 °F 76% 30.03 in 10.0 mi ESE 10.4 mph - N/A   Mostly Cloudy
1:53 PM 51.1 °F - 43.0 °F 74% 30.04 in 10.0 mi ENE 9.2 mph - N/A   Scattered Clouds
2:53 PM 54.0 °F - 43.0 °F 66% 30.05 in 10.0 mi ENE 6.9 mph - N/A   Clear
3:53 PM 57.0 °F - 42.1 °F 57% 30.05 in 10.0 mi Variable 6.9 mph - N/A   Scattered Clouds
4:53 PM 57.0 °F - 39.9 °F 53% 30.04 in 10.0 mi ESE 9.2 mph - N/A   Partly Cloudy
5:53 PM 55.9 °F - 42.1 °F 60% 30.05 in 10.0 mi East 5.8 mph - N/A   Mostly Cloudy
6:53 PM 57.0 °F - 44.1 °F 62% 30.06 in 10.0 mi East 5.8 mph - N/A   Partly Cloudy
7:53 PM 55.9 °F - 43.0 °F 62% 30.07 in 10.0 mi ENE 3.5 mph - N/A   Clear
8:53 PM 54.0 °F - 42.1 °F 64% 30.06 in 10.0 mi Calm Calm - N/A   Clear
9:53 PM 48.9 °F - 43.0 °F 80% 30.08 in 10.0 mi Calm Calm - N/A   Clear
10:53 PM 43.0 °F - 39.9 °F 89% 30.08 in 10.0 mi Calm Calm - N/A   Clear
11:53 PM 41.0 °F - 37.9 °F 89% 30.09 in 10.0 mi Calm Calm - N/A   Clear